TimeMST,TemperatureF,Dew PointF,Humidity,Sea Level PressureIn,VisibilityMPH,Wind Direction,Wind SpeedMPH,Gust SpeedMPH,PrecipitationIn,Events,Conditions,WindDirDegrees,DateUTC
12:55 AM,16.0,10.9,81,30.39,10.0,WNW,9.2,-,N/A,,Clear,290,2014-01-15 07:55:00
1:55 AM,10.9,8.1,88,30.40,10.0,North,3.5,-,N/A,,Clear,10,2014-01-15 08:55:00
2:55 AM,6.1,3.0,87,30.41,10.0,North,6.9,-,N/A,,Clear,360,2014-01-15 09:55:00
3:55 AM,8.1,5.0,87,30.35,10.0,North,5.8,-,N/A,,Clear,350,2014-01-15 10:55:00
4:55 AM,9.0,6.1,88,30.36,10.0,North,8.1,-,N/A,,Clear,10,2014-01-15 11:55:00
5:55 AM,8.1,5.0,87,30.39,10.0,North,9.2,-,N/A,,Clear,350,2014-01-15 12:55:00
6:55 AM,10.0,6.1,84,30.35,10.0,North,9.2,-,N/A,,Clear,350,2014-01-15 13:55:00
7:55 AM,14.0,10.0,84,30.32,10.0,NNE,3.5,-,N/A,,Clear,30,2014-01-15 14:55:00
8:55 AM,19.0,14.0,81,30.28,10.0,NNW,4.6,-,N/A,,Clear,340,2014-01-15 15:55:00
9:55 AM,30.9,19.0,61,30.22,10.0,Calm,Calm,-,N/A,,Clear,0,2014-01-15 16:55:00
10:55 AM,33.1,21.0,61,30.21,10.0,NW,3.5,-,N/A,,Clear,310,2014-01-15 17:55:00
11:55 AM,37.0,25.0,62,30.18,10.0,NW,3.5,-,N/A,,Clear,320,2014-01-15 18:55:00
12:55 PM,44.1,28.9,55,30.09,10.0,NW,5.8,-,N/A,,Partly Cloudy,320,2014-01-15 19:55:00
1:55 PM,48.0,26.1,42,30.07,10.0,West,6.9,-,N/A,,Clear,280,2014-01-15 20:55:00
2:55 PM,48.9,26.1,41,30.06,10.0,WNW,12.7,-,N/A,,Clear,300,2014-01-15 21:55:00
3:55 PM,48.9,27.0,43,30.06,10.0,Calm,Calm,-,N/A,,Clear,0,2014-01-15 22:55:00
4:55 PM,35.1,27.0,72,30.12,10.0,North,6.9,-,N/A,,Clear,350,2014-01-15 23:55:00
5:55 PM,30.9,26.1,82,30.16,10.0,West,4.6,-,N/A,,Clear,270,2014-01-16 00:55:00
6:55 PM,37.0,23.0,57,30.13,10.0,WNW,8.1,-,N/A,,Clear,290,2014-01-16 01:55:00
7:55 PM,32.0,23.0,69,30.15,10.0,NW,4.6,-,N/A,,Clear,310,2014-01-16 02:55:00
8:55 PM,35.1,21.0,57,30.12,10.0,WSW,8.1,-,N/A,,Clear,240,2014-01-16 03:55:00
9:55 PM,30.9,21.0,67,30.09,10.0,South,6.9,-,N/A,,Clear,170,2014-01-16 04:55:00
10:55 PM,26.1,19.0,75,30.11,10.0,Calm,Calm,-,N/A,,Clear,0,2014-01-16 05:55:00
11:55 PM,30.9,19.9,64,30.09,10.0,WNW,13.8,-,N/A,,Clear,300,2014-01-16 06:55:00